Year,Month,Day,Hour,Minute,Value (Times are PST for temperature in C)
2017,09,04,00,00,19.10
2017,09,04,00,01,19.10
2017,09,04,00,02,19.00
2017,09,04,00,03,18.90
2017,09,04,00,04,18.90
2017,09,04,00,05,18.90
2017,09,04,00,06,18.90
2017,09,04,00,07,18.90
2017,09,04,00,08,19.00
2017,09,04,00,09,19.10
2017,09,04,00,10,19.10
2017,09,04,00,11,19.10
2017,09,04,00,12,19.10
2017,09,04,00,13,19.10
2017,09,04,00,14,19.10
2017,09,04,00,15,19.10
2017,09,04,00,16,19.10
2017,09,04,00,17,19.20
2017,09,04,00,18,19.20
2017,09,04,00,19,19.20
2017,09,04,00,20,19.30
2017,09,04,00,21,19.30
2017,09,04,00,22,19.30
2017,09,04,00,23,19.30
2017,09,04,00,24,19.20
2017,09,04,00,25,19.20
2017,09,04,00,26,19.20
2017,09,04,00,27,19.10
2017,09,04,00,28,19.10
2017,09,04,00,29,19.10
2017,09,04,00,30,19.10
2017,09,04,00,31,18.90
2017,09,04,00,32,18.90
2017,09,04,00,33,18.90
2017,09,04,00,34,18.80
2017,09,04,00,35,18.80
2017,09,04,00,36,18.70
2017,09,04,00,37,18.70
2017,09,04,00,38,18.60
2017,09,04,00,39,18.60
2017,09,04,00,40,18.60
2017,09,04,00,41,18.60
2017,09,04,00,42,18.60
2017,09,04,00,43,18.60
2017,09,04,00,44,18.60
2017,09,04,00,45,18.60
2017,09,04,00,46,18.60
2017,09,04,00,47,18.60
2017,09,04,00,48,18.60
2017,09,04,00,49,18.60
2017,09,04,00,50,18.60
2017,09,04,00,51,18.70
2017,09,04,00,52,18.70
2017,09,04,00,53,18.70
2017,09,04,00,54,18.70
2017,09,04,00,55,18.70
2017,09,04,00,56,18.70
2017,09,04,00,57,18.80
2017,09,04,00,58,18.80
2017,09,04,00,59,18.80
2017,09,04,01,00,18.80
2017,09,04,01,01,18.80
2017,09,04,01,02,18.80
2017,09,04,01,03,18.80
2017,09,04,01,04,18.70
2017,09,04,01,05,18.70
2017,09,04,01,06,18.70
2017,09,04,01,07,18.70
2017,09,04,01,08,18.70
2017,09,04,01,09,18.70
2017,09,04,01,10,18.70
2017,09,04,01,11,18.60
2017,09,04,01,12,18.60
2017,09,04,01,13,18.60
2017,09,04,01,14,18.60
2017,09,04,01,15,18.60
2017,09,04,01,16,18.60
2017,09,04,01,17,18.60
2017,09,04,01,18,18.70
2017,09,04,01,19,18.70
2017,09,04,01,20,18.70
2017,09,04,01,21,18.70
2017,09,04,01,22,18.80
2017,09,04,01,23,18.80
2017,09,04,01,24,18.80
2017,09,04,01,25,18.80
2017,09,04,01,26,18.80
2017,09,04,01,27,18.80
2017,09,04,01,28,18.80
2017,09,04,01,29,18.70
2017,09,04,01,30,18.70
2017,09,04,01,31,18.70
2017,09,04,01,32,18.70
2017,09,04,01,33,18.60
2017,09,04,01,34,18.60
2017,09,04,01,35,18.60
2017,09,04,01,36,18.50
2017,09,04,01,37,18.50
2017,09,04,01,38,18.50
2017,09,04,01,39,18.40
2017,09,04,01,40,18.40
2017,09,04,01,41,18.40
2017,09,04,01,42,18.40
2017,09,04,01,43,18.40
2017,09,04,01,44,18.40
2017,09,04,01,45,18.40
2017,09,04,01,46,18.40
2017,09,04,01,47,18.40
2017,09,04,01,48,18.40
2017,09,04,01,49,18.50
2017,09,04,01,50,18.50
2017,09,04,01,51,18.50
2017,09,04,01,52,18.60
2017,09,04,01,53,18.60
2017,09,04,01,54,18.60
2017,09,04,01,55,18.70
2017,09,04,01,56,18.70
2017,09,04,01,57,18.70
2017,09,04,01,58,18.70
2017,09,04,01,59,18.80
2017,09,04,02,00,18.80
2017,09,04,02,01,18.80
2017,09,04,02,02,18.80
2017,09,04,02,03,18.80
2017,09,04,02,04,18.80
2017,09,04,02,05,18.80
2017,09,04,02,06,18.80
2017,09,04,02,07,18.80
2017,09,04,02,08,18.80
2017,09,04,02,09,18.80
2017,09,04,02,10,18.80
2017,09,04,02,11,18.80
2017,09,04,02,12,18.80
2017,09,04,02,13,18.80
2017,09,04,02,14,18.90
2017,09,04,02,15,18.90
2017,09,04,02,16,18.90
2017,09,04,02,17,18.90
2017,09,04,02,18,18.90
2017,09,04,02,19,18.90
2017,09,04,02,20,18.90
2017,09,04,02,21,18.90
2017,09,04,02,22,18.90
2017,09,04,02,23,18.90
2017,09,04,02,24,18.90
2017,09,04,02,25,18.90
2017,09,04,02,26,18.90
2017,09,04,02,27,18.90
2017,09,04,02,28,18.90
2017,09,04,02,29,18.90
2017,09,04,02,30,18.90
2017,09,04,02,31,19.00
2017,09,04,02,32,19.10
2017,09,04,02,33,19.10
2017,09,04,02,34,19.10
2017,09,04,02,35,19.10
2017,09,04,02,36,19.10
2017,09,04,02,37,19.10
2017,09,04,02,38,19.10
2017,09,04,02,39,19.10
2017,09,04,02,40,19.10
2017,09,04,02,41,19.10
2017,09,04,02,42,19.20
2017,09,04,02,43,19.20
2017,09,04,02,44,19.20
2017,09,04,02,45,19.20
2017,09,04,02,46,19.30
2017,09,04,02,47,19.30
2017,09,04,02,48,19.40
2017,09,04,02,49,19.50
2017,09,04,02,50,19.50
2017,09,04,02,51,19.60
2017,09,04,02,52,19.70
2017,09,04,02,53,19.80
2017,09,04,02,54,19.90
2017,09,04,02,55,19.90
2017,09,04,02,56,20.10
2017,09,04,02,57,20.10
2017,09,04,02,58,20.20
2017,09,04,02,59,20.20
2017,09,04,03,00,20.20
2017,09,04,03,01,20.30
2017,09,04,03,02,20.30
2017,09,04,03,03,20.40
2017,09,04,03,04,20.40
2017,09,04,03,05,20.50
2017,09,04,03,06,20.50
2017,09,04,03,07,20.50
2017,09,04,03,08,20.60
2017,09,04,03,09,20.60
2017,09,04,03,10,20.60
2017,09,04,03,11,20.60
2017,09,04,03,12,20.70
2017,09,04,03,13,20.70
2017,09,04,03,14,20.70
2017,09,04,03,15,20.70
2017,09,04,03,16,20.70
2017,09,04,03,17,20.70
2017,09,04,03,18,20.60
2017,09,04,03,19,20.60
2017,09,04,03,20,20.60
2017,09,04,03,21,20.60
2017,09,04,03,22,20.50
2017,09,04,03,23,20.50
2017,09,04,03,24,20.50
2017,09,04,03,25,20.40
2017,09,04,03,26,20.40
2017,09,04,03,27,20.40
2017,09,04,03,28,20.30
2017,09,04,03,29,20.30
2017,09,04,03,30,20.30
2017,09,04,03,31,20.30
2017,09,04,03,32,20.30
2017,09,04,03,33,20.30
2017,09,04,03,34,20.30
2017,09,04,03,35,20.30
2017,09,04,03,36,20.30
2017,09,04,03,37,20.30
2017,09,04,03,38,20.30
2017,09,04,03,39,20.30
2017,09,04,03,40,20.30
2017,09,04,03,41,20.30
2017,09,04,03,42,20.30
2017,09,04,03,43,20.30
2017,09,04,03,44,20.30
2017,09,04,03,45,20.30
2017,09,04,03,46,20.30
2017,09,04,03,47,20.30
2017,09,04,03,48,20.30
2017,09,04,03,49,20.30
2017,09,04,03,50,20.20
2017,09,04,03,51,20.20
2017,09,04,03,52,20.20
2017,09,04,03,53,20.20
2017,09,04,03,54,20.20
2017,09,04,03,55,20.20
2017,09,04,03,56,20.20
2017,09,04,03,57,20.20
2017,09,04,03,58,20.20
2017,09,04,03,59,20.20
2017,09,04,04,00,20.20
2017,09,04,04,01,20.20
2017,09,04,04,02,20.10
2017,09,04,04,03,20.10
2017,09,04,04,04,20.10
2017,09,04,04,05,20.10
2017,09,04,04,06,20.10
2017,09,04,04,07,20.10
2017,09,04,04,08,20.10
2017,09,04,04,09,20.00
2017,09,04,04,10,19.90
2017,09,04,04,11,19.90
2017,09,04,04,12,19.90
2017,09,04,04,13,19.90
2017,09,04,04,14,19.90
2017,09,04,04,15,19.90
2017,09,04,04,16,19.90
2017,09,04,04,17,19.90
2017,09,04,04,18,19.80
2017,09,04,04,19,19.80
2017,09,04,04,20,19.80
2017,09,04,04,21,19.80
2017,09,04,04,22,19.80
2017,09,04,04,23,19.80
2017,09,04,04,24,19.80
2017,09,04,04,25,19.90
2017,09,04,04,26,19.90
2017,09,04,04,27,19.90
2017,09,04,04,28,19.90
2017,09,04,04,29,19.90
2017,09,04,04,30,19.90
2017,09,04,04,31,19.90
2017,09,04,04,32,19.90
2017,09,04,04,33,19.90
2017,09,04,04,34,19.90
2017,09,04,04,35,19.90
2017,09,04,04,36,19.90
2017,09,04,04,37,19.90
2017,09,04,04,38,19.90
2017,09,04,04,39,19.90
2017,09,04,04,40,19.90
2017,09,04,04,41,19.90
2017,09,04,04,42,20.00
2017,09,04,04,43,20.10
2017,09,04,04,44,20.10
2017,09,04,04,45,20.10
2017,09,04,04,46,20.10
2017,09,04,04,47,20.10
2017,09,04,04,48,20.10
2017,09,04,04,49,20.10
2017,09,04,04,50,20.10
2017,09,04,04,51,20.10
2017,09,04,04,52,20.10
2017,09,04,04,53,20.10
2017,09,04,04,54,20.10
2017,09,04,04,55,20.10
2017,09,04,04,56,20.10
2017,09,04,04,57,20.10
2017,09,04,04,58,20.10
2017,09,04,04,59,20.10
2017,09,04,05,00,20.10
2017,09,04,05,01,20.10
2017,09,04,05,02,20.10
2017,09,04,05,03,20.10
2017,09,04,05,04,20.10
2017,09,04,05,05,20.00
2017,09,04,05,06,19.90
2017,09,04,05,07,19.90
2017,09,04,05,08,19.90
2017,09,04,05,09,19.90
2017,09,04,05,10,19.90
2017,09,04,05,11,19.90
2017,09,04,05,12,19.90
2017,09,04,05,13,19.90
2017,09,04,05,14,19.90
2017,09,04,05,15,19.90
2017,09,04,05,16,19.90
2017,09,04,05,17,19.90
2017,09,04,05,18,19.90
2017,09,04,05,19,19.90
2017,09,04,05,20,19.90
2017,09,04,05,21,20.00
2017,09,04,05,22,20.10
2017,09,04,05,23,20.10
2017,09,04,05,24,20.10
2017,09,04,05,25,20.10
2017,09,04,05,26,20.10
2017,09,04,05,27,20.10
2017,09,04,05,28,20.20
2017,09,04,05,29,20.20
2017,09,04,05,30,20.20
2017,09,04,05,31,20.20
2017,09,04,05,32,20.20
2017,09,04,05,33,20.20
2017,09,04,05,34,20.20
2017,09,04,05,35,20.20
2017,09,04,05,36,20.20
2017,09,04,05,37,20.20
2017,09,04,05,38,20.20
2017,09,04,05,39,20.20
2017,09,04,05,40,20.20
2017,09,04,05,41,20.20
2017,09,04,05,42,20.20
2017,09,04,05,43,20.20
2017,09,04,05,44,20.30
2017,09,04,05,45,20.30
2017,09,04,05,46,20.30
2017,09,04,05,47,20.30
2017,09,04,05,48,20.30
2017,09,04,05,49,20.40
2017,09,04,05,50,20.40
2017,09,04,05,51,20.40
2017,09,04,05,52,20.40
2017,09,04,05,53,20.40
2017,09,04,05,54,20.40
2017,09,04,05,55,20.40
2017,09,04,05,56,20.40
2017,09,04,05,57,20.40
2017,09,04,05,58,20.40
2017,09,04,05,59,20.40
2017,09,04,06,00,20.40
2017,09,04,06,01,20.40
2017,09,04,06,02,20.40
2017,09,04,06,03,20.30
2017,09,04,06,04,20.30
2017,09,04,06,05,20.30
2017,09,04,06,06,20.30
2017,09,04,06,07,20.20
2017,09,04,06,08,20.20
2017,09,04,06,09,20.20
2017,09,04,06,10,20.20
2017,09,04,06,11,20.20
2017,09,04,06,12,20.20
2017,09,04,06,13,20.20
2017,09,04,06,14,20.20
2017,09,04,06,15,20.20
2017,09,04,06,16,20.20
2017,09,04,06,17,20.20
2017,09,04,06,18,20.20
2017,09,04,06,19,20.20
2017,09,04,06,20,20.20
2017,09,04,06,21,20.20
2017,09,04,06,22,20.20
2017,09,04,06,23,20.20
2017,09,04,06,24,20.20
2017,09,04,06,25,20.20
2017,09,04,06,26,20.20
2017,09,04,06,27,20.20
2017,09,04,06,28,20.20
2017,09,04,06,29,20.20
2017,09,04,06,30,20.20
2017,09,04,06,31,20.20
2017,09,04,06,32,20.30
2017,09,04,06,33,20.30
2017,09,04,06,34,20.30
2017,09,04,06,35,20.30
2017,09,04,06,36,20.40
2017,09,04,06,37,20.40
2017,09,04,06,38,20.40
2017,09,04,06,39,20.40
2017,09,04,06,40,20.40
2017,09,04,06,41,20.40
2017,09,04,06,42,20.50
2017,09,04,06,43,20.50
2017,09,04,06,44,20.50
2017,09,04,06,45,20.50
2017,09,04,06,46,20.50
2017,09,04,06,47,20.50
2017,09,04,06,48,20.50
2017,09,04,06,49,20.50
2017,09,04,06,50,20.50
2017,09,04,06,51,20.50
2017,09,04,06,52,20.50
2017,09,04,06,53,20.50
2017,09,04,06,54,20.50
2017,09,04,06,55,20.50
2017,09,04,06,56,20.50
2017,09,04,06,57,20.50
2017,09,04,06,58,20.50
2017,09,04,06,59,20.50
2017,09,04,07,00,20.50
2017,09,04,07,01,20.50
2017,09,04,07,02,20.60
2017,09,04,07,03,20.60
2017,09,04,07,04,20.60
2017,09,04,07,05,20.60
2017,09,04,07,06,20.60
2017,09,04,07,07,20.60
2017,09,04,07,08,20.60
2017,09,04,07,09,20.60
2017,09,04,07,10,20.60
2017,09,04,07,11,20.60
2017,09,04,07,12,20.60
2017,09,04,07,13,20.60
2017,09,04,07,14,20.60
2017,09,04,07,15,20.60
2017,09,04,07,16,20.60
2017,09,04,07,17,20.60
2017,09,04,07,18,20.60
2017,09,04,07,19,20.60
2017,09,04,07,20,20.60
2017,09,04,07,21,20.60
2017,09,04,07,22,20.60
2017,09,04,07,23,20.60
2017,09,04,07,24,20.60
2017,09,04,07,25,20.60
2017,09,04,07,26,20.60
2017,09,04,07,27,20.60
2017,09,04,07,28,20.60
2017,09,04,07,29,20.60
2017,09,04,07,30,20.60
2017,09,04,07,31,20.60
2017,09,04,07,32,20.60
2017,09,04,07,33,20.60
2017,09,04,07,34,20.50
2017,09,04,07,35,20.50
2017,09,04,07,36,20.50
2017,09,04,07,37,20.50
2017,09,04,07,38,20.50
2017,09,04,07,39,20.50
2017,09,04,07,40,20.50
2017,09,04,07,41,20.50
2017,09,04,07,42,20.50
2017,09,04,07,43,20.60
2017,09,04,07,44,20.60
2017,09,04,07,45,20.60
2017,09,04,07,46,20.60
2017,09,04,07,47,20.60
2017,09,04,07,48,20.70
2017,09,04,07,49,20.70
2017,09,04,07,50,20.70
2017,09,04,07,51,20.70
2017,09,04,07,52,20.70
2017,09,04,07,53,20.80
2017,09,04,07,54,20.80
2017,09,04,07,55,20.80
2017,09,04,07,56,20.80
2017,09,04,07,57,20.80
2017,09,04,07,58,20.80
2017,09,04,07,59,20.80
2017,09,04,08,00,20.90
2017,09,04,08,01,20.90
2017,09,04,08,02,20.90
2017,09,04,08,03,21.00
2017,09,04,08,04,21.00
2017,09,04,08,05,21.00
2017,09,04,08,06,21.00
2017,09,04,08,07,21.00
2017,09,04,08,08,21.00
2017,09,04,08,09,21.00
2017,09,04,08,10,21.00
2017,09,04,08,11,21.00
2017,09,04,08,12,21.10
2017,09,04,08,13,21.10
2017,09,04,08,14,21.10
2017,09,04,08,15,21.20
2017,09,04,08,16,21.20
2017,09,04,08,17,21.30
2017,09,04,08,18,21.30
2017,09,04,08,19,21.30
2017,09,04,08,20,21.30
2017,09,04,08,21,21.30
2017,09,04,08,22,21.40
2017,09,04,08,23,21.40
2017,09,04,08,24,21.40
2017,09,04,08,25,21.60
2017,09,04,08,26,21.60
2017,09,04,08,27,21.50
2017,09,04,08,28,21.40
2017,09,04,08,29,21.40
2017,09,04,08,30,21.40
2017,09,04,08,31,21.40
2017,09,04,08,32,21.60
2017,09,04,08,33,21.60
2017,09,04,08,34,21.60
2017,09,04,08,35,21.60
2017,09,04,08,36,21.60
2017,09,04,08,37,21.60
2017,09,04,08,38,21.60
2017,09,04,08,39,21.60
2017,09,04,08,40,21.60
2017,09,04,08,41,21.60
2017,09,04,08,42,21.70
2017,09,04,08,43,21.70
2017,09,04,08,44,21.70
2017,09,04,08,45,21.80
2017,09,04,08,46,21.80
2017,09,04,08,47,21.80
2017,09,04,08,48,21.90
2017,09,04,08,49,21.90
2017,09,04,08,50,22.00
2017,09,04,08,51,22.00
2017,09,04,08,52,22.10
2017,09,04,08,53,22.10
2017,09,04,08,54,22.10
2017,09,04,08,55,22.10
2017,09,04,08,56,22.10
2017,09,04,08,57,22.20
2017,09,04,08,58,22.30
2017,09,04,08,59,22.30
2017,09,04,09,00,22.40
2017,09,04,09,01,22.40
2017,09,04,09,02,22.50
2017,09,04,09,03,22.50
2017,09,04,09,04,22.60
2017,09,04,09,05,22.60
2017,09,04,09,06,22.60
2017,09,04,09,07,22.70
2017,09,04,09,08,22.80
2017,09,04,09,09,22.90
2017,09,04,09,10,23.00
2017,09,04,09,11,23.20
2017,09,04,09,12,23.30
2017,09,04,09,13,23.40
2017,09,04,09,14,23.60
2017,09,04,09,15,23.70
2017,09,04,09,16,23.70
2017,09,04,09,17,23.70
2017,09,04,09,18,23.80
2017,09,04,09,19,23.90
2017,09,04,09,20,24.00
2017,09,04,09,21,24.10
2017,09,04,09,22,24.20
2017,09,04,09,23,24.30
2017,09,04,09,24,24.40
2017,09,04,09,25,24.50
2017,09,04,09,26,24.50
2017,09,04,09,27,24.60
2017,09,04,09,28,24.70
2017,09,04,09,29,24.80
2017,09,04,09,30,24.80
2017,09,04,09,31,24.80
2017,09,04,09,32,24.90
2017,09,04,09,33,24.90
2017,09,04,09,34,24.90
2017,09,04,09,35,24.90
2017,09,04,09,36,24.90
2017,09,04,09,37,25.00
2017,09,04,09,38,25.00
2017,09,04,09,39,25.00
2017,09,04,09,40,25.00
2017,09,04,09,41,25.00
2017,09,04,09,42,25.00
2017,09,04,09,43,25.10
2017,09,04,09,44,25.10
2017,09,04,09,45,25.10
2017,09,04,09,46,25.10
2017,09,04,09,47,25.10
2017,09,04,09,48,25.10
2017,09,04,09,49,25.10
2017,09,04,09,50,25.10
2017,09,04,09,51,25.10
2017,09,04,09,52,25.10
2017,09,04,09,53,25.20
2017,09,04,09,54,25.20
2017,09,04,09,55,25.20
2017,09,04,09,56,25.20
2017,09,04,09,57,25.30
2017,09,04,09,58,25.40
2017,09,04,09,59,25.40
2017,09,04,10,00,25.50
2017,09,04,10,01,25.60
2017,09,04,10,02,25.70
2017,09,04,10,03,25.80
2017,09,04,10,04,25.90
2017,09,04,10,05,25.90
2017,09,04,10,06,26.00
2017,09,04,10,07,26.10
2017,09,04,10,08,26.20
2017,09,04,10,09,26.30
2017,09,04,10,10,26.40
2017,09,04,10,11,26.50
2017,09,04,10,12,26.60
2017,09,04,10,13,26.60
2017,09,04,10,14,26.60
2017,09,04,10,15,26.70
2017,09,04,10,16,26.70
2017,09,04,10,17,26.70
2017,09,04,10,18,26.70
2017,09,04,10,19,26.70
2017,09,04,10,20,26.60
2017,09,04,10,21,26.60
2017,09,04,10,22,26.60
2017,09,04,10,23,26.60
2017,09,04,10,24,26.60
2017,09,04,10,25,26.60
2017,09,04,10,26,26.70
2017,09,04,10,27,26.70
2017,09,04,10,28,26.80
2017,09,04,10,29,26.90
2017,09,04,10,30,27.00
2017,09,04,10,31,27.10
2017,09,04,10,32,27.20
2017,09,04,10,33,27.20
2017,09,04,10,34,27.20
2017,09,04,10,35,27.30
2017,09,04,10,36,27.30
2017,09,04,10,37,27.30
2017,09,04,10,38,27.30
2017,09,04,10,39,27.30
2017,09,04,10,40,27.30
2017,09,04,10,41,27.30
2017,09,04,10,42,27.30
2017,09,04,10,43,27.40
2017,09,04,10,44,27.40
2017,09,04,10,45,27.50
2017,09,04,10,46,27.60
2017,09,04,10,47,27.70
2017,09,04,10,48,27.80
2017,09,04,10,49,27.80
2017,09,04,10,50,27.90
2017,09,04,10,51,28.00
2017,09,04,10,52,28.00
2017,09,04,10,53,28.00
2017,09,04,10,54,28.00
2017,09,04,10,55,28.00
2017,09,04,10,56,28.00
2017,09,04,10,57,28.00
2017,09,04,10,58,28.00
2017,09,04,10,59,27.90
2017,09,04,11,00,27.90
2017,09,04,11,01,27.90
2017,09,04,11,02,27.90
2017,09,04,11,03,27.90
2017,09,04,11,04,28.00
2017,09,04,11,05,27.90
2017,09,04,11,06,28.00
2017,09,04,11,07,28.00
2017,09,04,11,08,28.00
2017,09,04,11,09,28.00
2017,09,04,11,10,28.00
2017,09,04,11,11,28.00
2017,09,04,11,12,28.10
2017,09,04,11,13,28.20
2017,09,04,11,14,28.20
2017,09,04,11,15,28.20
2017,09,04,11,16,28.20
2017,09,04,11,17,28.30
2017,09,04,11,18,28.30
2017,09,04,11,19,28.30
2017,09,04,11,20,28.40
2017,09,04,11,21,28.40
2017,09,04,11,22,28.40
2017,09,04,11,23,28.40
2017,09,04,11,24,28.40
2017,09,04,11,25,28.50
2017,09,04,11,26,28.60
2017,09,04,11,27,28.60
2017,09,04,11,28,28.70
2017,09,04,11,29,28.80
2017,09,04,11,30,28.80
2017,09,04,11,31,28.90
2017,09,04,11,32,28.80
2017,09,04,11,33,28.80
2017,09,04,11,34,28.90
2017,09,04,11,35,28.90
2017,09,04,11,36,29.00
2017,09,04,11,37,29.10
2017,09,04,11,38,29.20
2017,09,04,11,39,29.20
2017,09,04,11,40,29.30
2017,09,04,11,41,29.40
2017,09,04,11,42,29.50
2017,09,04,11,43,29.50
2017,09,04,11,44,29.50
2017,09,04,11,45,29.50
2017,09,04,11,46,29.50
2017,09,04,11,47,29.60
2017,09,04,11,48,29.60
2017,09,04,11,49,29.60
2017,09,04,11,50,29.60
2017,09,04,11,51,29.50
2017,09,04,11,52,29.50
2017,09,04,11,53,29.50
2017,09,04,11,54,29.50
2017,09,04,11,55,29.60
2017,09,04,11,56,29.60
2017,09,04,11,57,29.50
2017,09,04,11,58,29.50
2017,09,04,11,59,29.60
2017,09,04,12,00,29.60
2017,09,04,12,01,29.60
2017,09,04,12,02,29.60
2017,09,04,12,03,29.70
2017,09,04,12,04,29.70
2017,09,04,12,05,29.70
2017,09,04,12,06,29.70
2017,09,04,12,07,29.70
2017,09,04,12,08,29.70
2017,09,04,12,09,29.60
2017,09,04,12,10,29.50
2017,09,04,12,11,29.60
2017,09,04,12,12,29.50
2017,09,04,12,13,29.40
2017,09,04,12,14,29.40
2017,09,04,12,15,29.30
2017,09,04,12,16,29.30
2017,09,04,12,17,29.30
2017,09,04,12,18,29.20
2017,09,04,12,19,29.20
2017,09,04,12,20,29.20
2017,09,04,12,21,29.20
2017,09,04,12,22,29.30
2017,09,04,12,23,29.40
2017,09,04,12,24,29.50
2017,09,04,12,25,29.60
2017,09,04,12,26,29.60
2017,09,04,12,27,29.70
2017,09,04,12,28,29.80
2017,09,04,12,29,29.80
2017,09,04,12,30,29.80
2017,09,04,12,31,29.80
2017,09,04,12,32,29.80
2017,09,04,12,33,29.80
2017,09,04,12,34,29.90
2017,09,04,12,35,29.90
2017,09,04,12,36,29.90
2017,09,04,12,37,29.90
2017,09,04,12,38,29.90
2017,09,04,12,39,29.90
2017,09,04,12,40,29.90
2017,09,04,12,41,29.90
2017,09,04,12,42,30.00
2017,09,04,12,43,30.00
2017,09,04,12,44,30.10
2017,09,04,12,45,30.10
2017,09,04,12,46,30.10
2017,09,04,12,47,30.20
2017,09,04,12,48,30.20
2017,09,04,12,49,30.20
2017,09,04,12,50,30.20
2017,09,04,12,51,30.30
2017,09,04,12,52,30.30
2017,09,04,12,53,30.40
2017,09,04,12,54,30.40
2017,09,04,12,55,30.50
2017,09,04,12,56,30.60
2017,09,04,12,57,30.60
2017,09,04,12,58,30.70
2017,09,04,12,59,30.70
2017,09,04,13,00,30.80
2017,09,04,13,01,30.80
2017,09,04,13,02,30.80
2017,09,04,13,03,30.80
2017,09,04,13,04,30.90
2017,09,04,13,05,30.90
2017,09,04,13,06,31.00
2017,09,04,13,07,31.00
2017,09,04,13,08,31.10
2017,09,04,13,09,31.10
2017,09,04,13,10,31.10
2017,09,04,13,11,31.10
2017,09,04,13,12,31.00
2017,09,04,13,13,30.90
2017,09,04,13,14,30.80
2017,09,04,13,15,30.70
2017,09,04,13,16,30.60
2017,09,04,13,17,30.60
2017,09,04,13,18,30.60
2017,09,04,13,19,30.60
2017,09,04,13,20,30.60
2017,09,04,13,21,30.60
2017,09,04,13,22,30.60
2017,09,04,13,23,30.60
2017,09,04,13,24,30.60
2017,09,04,13,25,30.70
2017,09,04,13,26,30.70
2017,09,04,13,27,30.70
2017,09,04,13,28,30.80
2017,09,04,13,29,30.80
2017,09,04,13,30,30.90
2017,09,04,13,31,30.90
2017,09,04,13,32,31.00
2017,09,04,13,33,31.10
2017,09,04,13,34,31.20
2017,09,04,13,35,31.20
2017,09,04,13,36,31.30
2017,09,04,13,37,31.30
2017,09,04,13,38,31.40
2017,09,04,13,39,31.40
2017,09,04,13,40,31.50
2017,09,04,13,41,31.60
2017,09,04,13,42,31.60
2017,09,04,13,43,31.70
2017,09,04,13,44,31.60
2017,09,04,13,45,31.60
2017,09,04,13,46,31.60
2017,09,04,13,47,31.60
2017,09,04,13,48,31.60
2017,09,04,13,49,31.60
2017,09,04,13,50,31.60
2017,09,04,13,51,31.60
2017,09,04,13,52,31.60
2017,09,04,13,53,31.60
2017,09,04,13,54,31.60
2017,09,04,13,55,31.60
2017,09,04,13,56,31.50
2017,09,04,13,57,31.40
2017,09,04,13,58,31.40
2017,09,04,13,59,31.40
2017,09,04,14,00,31.40
2017,09,04,14,01,31.50
2017,09,04,14,02,31.60
2017,09,04,14,03,31.60
2017,09,04,14,04,31.70
2017,09,04,14,05,31.70
2017,09,04,14,06,31.70
2017,09,04,14,07,31.80
2017,09,04,14,08,31.90
2017,09,04,14,09,31.90
2017,09,04,14,10,31.90
2017,09,04,14,11,32.00
2017,09,04,14,12,32.10
2017,09,04,14,13,32.20
2017,09,04,14,14,32.20
2017,09,04,14,15,32.20
2017,09,04,14,16,32.10
2017,09,04,14,17,32.00
2017,09,04,14,18,31.90
2017,09,04,14,19,31.80
2017,09,04,14,20,31.80
2017,09,04,14,21,31.80
2017,09,04,14,22,31.80
2017,09,04,14,23,31.80
2017,09,04,14,24,31.90
2017,09,04,14,25,31.90
2017,09,04,14,26,31.90
2017,09,04,14,27,32.00
2017,09,04,14,28,32.10
2017,09,04,14,29,32.10
2017,09,04,14,30,32.20
2017,09,04,14,31,32.20
2017,09,04,14,32,32.20
2017,09,04,14,33,32.30
2017,09,04,14,34,32.30
2017,09,04,14,35,32.30
2017,09,04,14,36,32.40
2017,09,04,14,37,32.40
2017,09,04,14,38,32.50
2017,09,04,14,39,32.50
2017,09,04,14,40,32.50
2017,09,04,14,41,32.60
2017,09,04,14,42,32.70
2017,09,04,14,43,32.80
2017,09,04,14,44,32.80
2017,09,04,14,45,32.80
2017,09,04,14,46,32.80
2017,09,04,14,47,32.80
2017,09,04,14,48,32.80
2017,09,04,14,49,32.80
2017,09,04,14,50,32.70
2017,09,04,14,51,32.50
2017,09,04,14,52,32.50
2017,09,04,14,53,32.40
2017,09,04,14,54,32.30
2017,09,04,14,55,32.20
2017,09,04,14,56,32.20
2017,09,04,14,57,32.20
2017,09,04,14,58,32.10
2017,09,04,14,59,32.10
2017,09,04,15,00,32.10
2017,09,04,15,01,32.10
2017,09,04,15,02,32.10
2017,09,04,15,03,32.10
2017,09,04,15,04,32.20
2017,09,04,15,05,32.20
2017,09,04,15,06,32.20
2017,09,04,15,07,32.30
2017,09,04,15,08,32.30
2017,09,04,15,09,32.40
2017,09,04,15,10,32.40
2017,09,04,15,11,32.40
2017,09,04,15,12,32.40
2017,09,04,15,13,32.40
2017,09,04,15,14,32.40
2017,09,04,15,15,32.30
2017,09,04,15,16,32.20
2017,09,04,15,17,32.20
2017,09,04,15,18,32.20
2017,09,04,15,19,32.20
2017,09,04,15,20,32.20
2017,09,04,15,21,32.20
2017,09,04,15,22,32.20
2017,09,04,15,23,32.20
2017,09,04,15,24,32.20
2017,09,04,15,25,32.20
2017,09,04,15,26,32.10
2017,09,04,15,27,32.10
2017,09,04,15,28,32.00
2017,09,04,15,29,31.90
2017,09,04,15,30,31.90
2017,09,04,15,31,31.80
2017,09,04,15,32,31.70
2017,09,04,15,33,31.70
2017,09,04,15,34,31.70
2017,09,04,15,35,31.60
2017,09,04,15,36,31.60
2017,09,04,15,37,31.60
2017,09,04,15,38,31.60
2017,09,04,15,39,31.60
2017,09,04,15,40,31.70
2017,09,04,15,41,31.70
2017,09,04,15,42,31.70
2017,09,04,15,43,31.70
2017,09,04,15,44,31.70
2017,09,04,15,45,31.70
2017,09,04,15,46,31.70
2017,09,04,15,47,31.70
2017,09,04,15,48,31.70
2017,09,04,15,49,31.60
2017,09,04,15,50,31.50
2017,09,04,15,51,31.40
2017,09,04,15,52,31.40
2017,09,04,15,53,31.40
2017,09,04,15,54,31.40
2017,09,04,15,55,31.30
2017,09,04,15,56,31.30
2017,09,04,15,57,31.30
2017,09,04,15,58,31.30
2017,09,04,15,59,31.20
2017,09,04,16,00,31.20
2017,09,04,16,01,31.20
2017,09,04,16,02,31.20
2017,09,04,16,03,31.20
2017,09,04,16,04,31.20
2017,09,04,16,05,31.20
2017,09,04,16,06,31.20
2017,09,04,16,07,31.20
2017,09,04,16,08,31.10
2017,09,04,16,09,31.10
2017,09,04,16,10,31.10
2017,09,04,16,11,31.10
2017,09,04,16,12,31.10
2017,09,04,16,13,31.00
2017,09,04,16,14,31.00
2017,09,04,16,15,31.00
2017,09,04,16,16,30.90
2017,09,04,16,17,30.90
2017,09,04,16,18,30.90
2017,09,04,16,19,30.80
2017,09,04,16,20,30.80
2017,09,04,16,21,30.80
2017,09,04,16,22,30.80
2017,09,04,16,23,30.70
2017,09,04,16,24,30.70
2017,09,04,16,25,30.70
2017,09,04,16,26,30.70
2017,09,04,16,27,30.70
2017,09,04,16,28,30.70
2017,09,04,16,29,30.70
2017,09,04,16,30,30.70
2017,09,04,16,31,30.70
2017,09,04,16,32,30.70
2017,09,04,16,33,30.70
2017,09,04,16,34,30.70
2017,09,04,16,35,30.70
2017,09,04,16,36,30.70
2017,09,04,16,37,30.70
2017,09,04,16,38,30.70
2017,09,04,16,39,30.70
2017,09,04,16,40,30.70
2017,09,04,16,41,30.70
2017,09,04,16,42,30.70
2017,09,04,16,43,30.70
2017,09,04,16,44,30.70
2017,09,04,16,45,30.70
2017,09,04,16,46,30.70
2017,09,04,16,47,30.80
2017,09,04,16,48,30.80
2017,09,04,16,49,30.80
2017,09,04,16,50,30.80
2017,09,04,16,51,30.80
2017,09,04,16,52,30.80
2017,09,04,16,53,30.80
2017,09,04,16,54,30.80
2017,09,04,16,55,30.70
2017,09,04,16,56,30.70
2017,09,04,16,57,30.70
2017,09,04,16,58,30.70
2017,09,04,16,59,30.70
2017,09,04,17,00,30.70
2017,09,04,17,01,30.70
2017,09,04,17,02,30.60
2017,09,04,17,03,30.60
2017,09,04,17,04,30.60
2017,09,04,17,05,30.60
2017,09,04,17,06,30.60
2017,09,04,17,07,30.50
2017,09,04,17,08,30.40
2017,09,04,17,09,30.40
2017,09,04,17,10,30.40
2017,09,04,17,11,30.40
2017,09,04,17,12,30.40
2017,09,04,17,13,30.30
2017,09,04,17,14,30.30
2017,09,04,17,15,30.30
2017,09,04,17,16,30.30
2017,09,04,17,17,30.30
2017,09,04,17,18,30.30
2017,09,04,17,19,30.30